Regional Weather Roundup
Issued by NWS

Home | Current Version | Previous Version | Text Only | Print | Product List | Glossary Off
Versions: 1 2 3 4 5 6 7 8 9 10 11 12 13 14 15 16 17 18 19 20 21 22 23 24 25 26 27 28

000
ASUS45 KCYS 301110
RWRWY

WYOMING REGIONAL WEATHER ROUNDUP
NATIONAL WEATHER SERVICE CHEYENNE WY
500 AM MDT THU OCT 30 2014

NOTE:  "FAIR" INDICATES FEW OR NO CLOUDS BELOW 12,000 FEET
WITH NO SIGNIFICANT WEATHER AND/OR OBSTRUCTIONS TO VISIBILITY.

WYZ001-301200-
YELLOWSTONE NATIONAL PARK

CITY           SKY/WX    TMP DP  RH WIND       PRES   REMARKS
LK YELLOWSTONE   N/A     25  23  92 CALM      30.38S
W YELLOWSTONE  NOT AVBL

$$
WYZ002>013-054>058-071-098>099-301200-
NORTHERN WYOMING

CITY           SKY/WX    TMP DP  RH WIND       PRES   REMARKS
JACKSON        CLOUDY    30  28  93 NE3       30.36R
CODY           PTCLDY    32  21  64 S3        30.28S
GREYBULL       CLEAR     32  21  64 SE6       30.29R WCI  26
WORLAND        CLEAR     28  19  69 CALM      30.29R
SHERIDAN       CLEAR     36  25  64 S6        30.28R WCI  31
BUFFALO        CLEAR     37  23  56 SW6       30.30R WCI  32
GILLETTE       CLEAR     38  27  64 W12       30.26R WCI  30
HULETT         FAIR      39  30  70 SW8       30.25  WCI  34
NEWCASTLE      FAIR      34  28  80 N10       30.26R WCI  26

$$
WYZ014>020-022>026-101>103-301200-
CENTRAL WYOMING

CITY           SKY/WX    TMP DP  RH WIND       PRES   REMARKS
BIG PINEY      PTCLDY    22  18  85 E6        30.38R WCI  14
PINEDALE       PTSUNNY   21  19  93 W6        30.39R WCI  14
DUBOIS         FAIR      32  27  80 W13       30.33S WCI  22
LANDER         CLEAR     36  22  56 NW6       30.30R WCI  31
RIVERTON       CLEAR     37  25  61 N3        30.31R
CASPER         PTCLDY    26  18  71 CALM      30.31R
DOUGLAS        CLEAR     34  22  61 N8        30.31R WCI  27

$$
WYZ021-027>030-104>119-301200-
SOUTHERN WYOMING

CITY           SKY/WX    TMP DP  RH WIND       PRES   REMARKS
EVANSTON       PTCLDY    40  23  50 S5        30.36S
FORT BRIDGER   FAIR      40  25  56 W9        30.38S WCI  34
ROCK SPRINGS   PTCLDY    34  28  79 W5        30.36S WCI  30
RAWLINS        PTCLDY    36  24  62 W9        30.35R WCI  29
SARATOGA       FAIR      32  25  74 S3        30.36S
LARAMIE        PTCLDY    33  24  69 CALM      30.33S
CHEYENNE       PTCLDY    40  23  50 N8        30.31R WCI  34
TORRINGTON     CLEAR     35  24  64 NW7       30.27R WCI  29
PINE BLUFFS    FAIR      32  25  74 W5        30.30R WCI  27

$$



USA.gov is the U.S. government's official web portal to all federal, state and local government web resources and services.